Groton, South Dakota, United States (57445)
Lat: 45.45N, Lon: 98.1W
Wx Zone: SDZ006
Local Info
Past Weather Observations for Saturday, July 26, 2014

NOTE: This archive is for the closest National Weather Service station to Groton. Information may differ from the station used for current weather conditions.

Click here for Long-term Archive

Time Weather Temperature Dewpoint Humidity Pressure Winds Precip Visibility
23:53
Clear
64°F / 18°C 54°F / 12°C 68% 29.98 in
(1015 mb)
WNW 15 mph
(WNW 24 kph)
- 10SM
22:53
Clear
64°F / 18°C 52°F / 11°C 64% 29.98 in
(1015 mb)
WNW 11.5 mph
(WNW 19 kph)
- 10SM
21:53
Clear
66°F / 19°C 52°F / 11°C 60% 29.95 in
(1014 mb)
WNW 9.2 mph
(WNW 15 kph)
- 10SM
20:53
Clear
70°F / 21°C 50°F / 10°C 50% 29.95 in
(1014 mb)
NW 12.7 mph
(NW 20 kph)
- 10SM
19:53
Clear
73°F / 23°C 48°F / 9°C 41% 29.92 in
(1013 mb)
NW 16.1 mph
(NW 26 kph)
- 10SM
18:53
Clear
77°F / 25°C 48°F / 9°C 36% 29.92 in
(1013 mb)
NW 18.4 mph
(NW 30 kph)
- 10SM
17:53
Partly Cloudy
81°F / 27°C 52°F / 11°C 37% 29.89 in
(1012 mb)
NW 21.9 mph
(NW 35 kph)
- 10SM
16:53
Clear
82°F / 28°C 52°F / 11°C 35% 29.86 in
(1011 mb)
WNW 23 mph
(WNW 37 kph)
- 10SM
15:53
Partly Cloudy
84°F / 29°C 46°F / 8°C 27% 29.86 in
(1011 mb)
W 17.3 mph
(W 28 kph)
- 10SM
14:53
Clear
84°F / 29°C 48°F / 9°C 29% 29.86 in
(1011 mb)
W 20.7 mph
(W 33 kph)
- 10SM
13:53
Clear
82°F / 28°C 48°F / 9°C 30% 29.89 in
(1012 mb)
NW 19.6 mph
(NW 32 kph)
- 10SM
12:53
Clear
84°F / 29°C 48°F / 9°C 29% 29.89 in
(1012 mb)
WNW 18.4 mph
(WNW 30 kph)
- 10SM
11:53
Clear
82°F / 28°C 50°F / 10°C 32% 29.89 in
(1012 mb)
W 12.7 mph
(W 20 kph)
- 10SM
10:53
Clear
82°F / 28°C 54°F / 12°C 37% 29.89 in
(1012 mb)
NNW 13.8 mph
(NNW 22 kph)
- 10SM
10:12
Clear
81°F / 27°C 57°F / 14°C 45% 29.89 in
(1012 mb)
NW 13.8 mph
(NW 22 kph)
- 10SM
09:53
Clear
81°F / 27°C 64°F / 18°C 58% 29.89 in
(1012 mb)
WNW 13.8 mph
(WNW 22 kph)
- 10SM
08:53
Clear
73°F / 23°C 66°F / 19°C 78% 29.86 in
(1011 mb)
SSE 6.9 mph
(SSE 11 kph)
- 10SM
07:53
Partly Cloudy
70°F / 21°C 66°F / 19°C 88% 29.89 in
(1012 mb)
W 6.9 mph
(W 11 kph)
- 10SM
06:53
Clear
64°F / 18°C 63°F / 17°C 94% 29.83 in
(1010 mb)
Calm - 10SM
05:53
Clear
55°F / 13°C 55°F / 13°C 100% 29.83 in
(1010 mb)
Calm - 7SM
04:53
Clear
Fog And Mist
57°F / 14°C 57°F / 14°C 100% 29.8 in
(1009 mb)
Calm - 4SM
03:53
Clear
Fog And Mist
61°F / 16°C 61°F / 16°C 100% 29.8 in
(1009 mb)
Calm - 6SM
03:13
Partly Cloudy
59°F / 15°C 59°F / 15°C 100% 29.83 in
(1010 mb)
Calm - 7SM
02:53
Clear
57°F / 14°C 57°F / 14°C 100% 29.8 in
(1009 mb)
E 4.6 mph
(E 7 kph)
- 10SM
01:53
Clear
55°F / 13°C 55°F / 13°C 100% 29.83 in
(1010 mb)
Calm - 10SM
00:53
Clear
55°F / 13°C 55°F / 13°C 100% 29.83 in
(1010 mb)
Calm - 10SM
Time Weather Temperature Dewpoint Humidity Pressure Winds Precip Visibility


Weather for websites

WeatherForYou.com, LLC is not responsible for any damages or problems caused by this service. Current weather conditions are obtained from the closest station including government and personal stations which may have varying degrees of accuracy. Weather forecasts are derived from the NOAA NDFD. Like all things, this site belongs to Jesus Christ... He just trusts me to maintain it. If you have any questions or comments email webmaster@weatherforyou.com

Copyright © 2014, WeatherForYou.com LLC. All rights reserved.